Weather History for KFAT - October, 2011

Change the Weather History Date:

Friday, October 7, 2011

  Actual Average Record
Temperature  
Mean Temperature 59 °F 70 °F  
Max Temperature 68 °F 84 °F 97 °F (2014)
Min Temperature 49 °F 56 °F 39 °F (1969)
Degree Days  
Heating Degree Days 6    
Month to date heating degree days 17  
Since 1 July heating degree days 17  
Cooling Degree Days 0    
Month to date cooling degree days 24  
Year to date cooling degree days 1986  
Growing Degree Days 7 (Base 50)    
Moisture  
Dew Point 46 °F    
Average Humidity 68    
Maximum Humidity 93    
Minimum Humidity 42    
Precipitation  
Precipitation 0.00 in 0.01 in 0.67 in (1973)
Month to date precipitation 0.90 0.08  
Year to date precipitation 10.25 8.11  
Since 1 July precipitation 0.90 0.27  
Snow  
Snow 0.00 in - - ()
Month to date snowfall 0.0  
Since 1 July snowfall 0.0  
Since 1 September snowfall 0.0  
Snow Depth 0.00 in    
Sea Level Pressure  
Sea Level Pressure 30.13 in    
Wind  
Wind Speed 3 mph (ESE)    
Max Wind Speed 9 mph    
Max Gust Speed 16 mph    
Visibility 8 miles    
Events      
T = Trace of Precipitation, MM = Missing Value Source: NWS Daily Summary

Daily Weather History Graph

Daily Weather History Graph

Search for Another Location

Airport or City:

Trip Planner

Search our weather history database for the weather conditions in past years. The results will help you decide how hot, cold, wet, or windy it might be!

Date:

Astronomy

Oct. 07, 2011 Rise Set
Actual Time 6:59 AM PDT 6:33 PM PDT
Civil Twilight 6:33 AM PDT 6:59 PM PDT
Nautical Twilight 6:03 AM PDT 7:29 PM PDT
Astronomical Twilight 5:33 AM PDT 7:59 PM PDT
Moon 4:14 PM PDT (10/7) 2:58 AM PDT (10/7)
Length of Visible Light 12h 26m
Length of Day
11h 34m
Waxing Gibbous, 84% of the Moon is Illuminated
Oct 7
Waxing Gibbous
Oct 11
Full
Oct 19
Last Quarter
Oct 26
New
Nov 2
First Quarter

Hourly Weather History & Observations

Time (PDT) Temp. Dew Point Humidity Pressure Visibility Wind Dir Wind Speed Gust Speed Precip Events Conditions
12:53 AM 52.0 °F 46.0 °F 80% 30.06 in 10.0 mi West 3.5 mph - N/A   Partly Cloudy
1:53 AM 51.1 °F 46.9 °F 86% 30.08 in 10.0 mi NNW 4.6 mph - N/A   Mostly Cloudy
2:53 AM 51.1 °F 46.0 °F 83% 30.09 in 10.0 mi NE 3.5 mph - N/A   Mostly Cloudy
3:53 AM 50.0 °F 46.0 °F 86% 30.09 in 10.0 mi NW 3.5 mph - N/A   Scattered Clouds
4:53 AM 50.0 °F 46.9 °F 89% 30.11 in 6.0 mi Calm Calm - N/A   Scattered Clouds
5:11 AM 50.0 °F 46.4 °F 87% 30.11 in 6.0 mi Calm Calm - N/A   Scattered Clouds
5:53 AM 48.9 °F 46.9 °F 93% 30.13 in 6.0 mi Calm Calm - N/A   Mostly Cloudy
6:13 AM 50.0 °F 46.4 °F 87% 30.14 in 5.0 mi NE 3.5 mph - N/A   Mostly Cloudy
6:53 AM 50.0 °F 48.0 °F 93% 30.14 in 5.0 mi Calm Calm - N/A   Overcast
7:53 AM 50.0 °F 46.9 °F 89% 30.16 in 5.0 mi East 3.5 mph - N/A   Overcast
8:53 AM 51.1 °F 48.9 °F 92% 30.17 in 3.0 mi SSE 3.5 mph - N/A   Overcast
9:53 AM 52.0 °F 48.9 °F 89% 30.18 in 3.0 mi SSE 3.5 mph - N/A   Overcast
10:34 AM 53.6 °F 48.2 °F 82% 30.19 in 3.0 mi SW 4.6 mph - N/A   Haze
10:53 AM 55.9 °F 48.9 °F 77% 30.18 in 3.0 mi SSW 4.6 mph - N/A   Haze
11:19 AM 57.2 °F 48.2 °F 72% 30.17 in 6.0 mi SSE 6.9 mph - N/A   Haze
11:53 AM 59.0 °F 48.0 °F 67% 30.16 in 6.0 mi SSE 4.6 mph - N/A   Haze
12:53 PM 62.1 °F 46.0 °F 56% 30.16 in 10.0 mi Variable 3.5 mph - N/A   Scattered Clouds
1:53 PM 64.9 °F 46.0 °F 50% 30.13 in 10.0 mi Calm Calm - N/A   Scattered Clouds
2:53 PM 66.0 °F 45.0 °F 47% 30.12 in 10.0 mi East 4.6 mph - N/A   Scattered Clouds
3:53 PM 66.0 °F 44.1 °F 45% 30.12 in 10.0 mi Calm Calm - N/A   Scattered Clouds
4:53 PM 66.9 °F 42.1 °F 40% 30.11 in 10.0 mi NW 3.5 mph - N/A   Partly Cloudy
5:53 PM 66.9 °F 39.9 °F 37% 30.11 in 10.0 mi Calm Calm - N/A   Partly Cloudy
6:53 PM 64.9 °F 43.0 °F 45% 30.10 in 10.0 mi East 3.5 mph - N/A   Partly Cloudy
7:53 PM 63.0 °F 44.1 °F 50% 30.11 in 10.0 mi Calm Calm - N/A   Partly Cloudy
8:53 PM 63.0 °F 45.0 °F 52% 30.12 in 10.0 mi Calm Calm - N/A   Partly Cloudy
9:53 PM 61.0 °F 46.0 °F 58% 30.12 in 10.0 mi Calm Calm - N/A   Partly Cloudy
10:53 PM 60.1 °F 48.0 °F 64% 30.12 in 10.0 mi Calm Calm - N/A   Partly Cloudy
11:53 PM 57.9 °F 48.0 °F 70% 30.12 in 10.0 mi Calm Calm - N/A   Scattered Clouds